カタログに戻る

SENTINEL-6B

運用中科学LEO
NORAD 66514·PAYLOAD·🇪🇺 EU

打ち上げ Nov 17, 2025 から Vandenberg Space Force Base

Loading…

次のパス (今後24時間)

TLE

最新Source: CelesTrak SupGP

元期: Sep 14, 2026, 00:00 UTC

1 66514C 25264A   26257.00000000  .00000050  00000+0  21488-3 0  2570
2 66514  66.0420 310.7125 0007884 269.0134  24.9534 12.80929043    19

AllMySatでSENTINEL-6Bをリアルタイム追跡

Download on the App Store